Minneapolis Flying Cloud, MN

4:17 PM CDT on October 14, 2019 (GMT -0500)
Flying Cloud

Weather History for KFCM - August, 2019

Change the Weather History Date:

Friday, August 30, 2019

  Actual Average Record
Temperature  
Mean Temperature 62 °F -  
Max Temperature 73 °F 78 °F 91 °F (2010)
Min Temperature 52 °F 58 °F 52 °F (2003)
Degree Days  
Heating Degree Days 3    
Growing Degree Days 12 (Base 50)    
Moisture  
Dew Point 49 °F    
Average Humidity 64    
Maximum Humidity 86    
Minimum Humidity 42    
Precipitation  
Precipitation 0.00 in - - ()
Sea Level Pressure  
Sea Level Pressure 30.16 in    
Wind  
Wind Speed 4 mph (NW)    
Max Wind Speed 9 mph    
Max Gust Speed -    
Visibility 10 miles    
Events      
Averages and records for this station are not official NWS values.
T = Trace of Precipitation, MM = Missing Value Source: NWS Daily Summary

Daily Weather History Graph

Daily Weather History Graph

Search for Another Location

Airport or City:

Astronomy

Aug. 30, 2019 Rise Set
Actual Time 6:33 AM CDT 7:54 PM CDT
Civil Twilight 6:03 AM CDT 8:24 PM CDT
Nautical Twilight 5:26 AM CDT 9:01 PM CDT
Astronomical Twilight 4:47 AM CDT 9:40 PM CDT
Moon 6:32 AM CDT (8/30) 8:31 PM CDT (8/30)
Length of Visible Light 14h 21m
Length of Day
13h 21m
New Moon, 0% of the Moon is Illuminated
Aug 30
New Moon
Sep 5
First Quarter
Sep 13
Full
Sep 21
Last Quarter
Sep 28
New

Hourly Weather History & Observations

Time (CDT) Temp. Dew Point Humidity Pressure Visibility Wind Dir Wind Speed Gust Speed Precip Events Conditions
12:53 AM 57.9 °F 50.0 °F 75% 30.04 in 10.0 mi WNW 4.6 mph - N/A   Clear
1:53 AM 55.0 °F 50.0 °F 83% 30.06 in 10.0 mi West 3.5 mph - N/A   Clear
2:53 AM 55.9 °F 50.0 °F 80% 30.06 in 10.0 mi West 3.5 mph - N/A   Clear
3:53 AM 54.0 °F 48.9 °F 83% 30.08 in 10.0 mi West 4.6 mph - N/A   Clear
4:53 AM 53.1 °F 48.9 °F 86% 30.10 in 10.0 mi WSW 3.5 mph - N/A   Clear
5:53 AM 52.0 °F 48.0 °F 86% 30.12 in 10.0 mi WNW 3.5 mph - N/A   Clear
6:53 AM 53.1 °F 48.0 °F 83% 30.14 in 10.0 mi NW 6.9 mph - N/A   Clear
7:53 AM 55.9 °F 51.1 °F 84% 30.16 in 10.0 mi Calm Calm - N/A   Clear
8:53 AM 60.1 °F 51.1 °F 72% 30.17 in 10.0 mi West 3.5 mph - N/A   Clear
9:53 AM 64.0 °F 50.0 °F 60% 30.17 in 10.0 mi WNW 3.5 mph - N/A   Clear
10:53 AM 66.9 °F 50.0 °F 54% 30.18 in 10.0 mi Calm Calm - N/A   Clear
11:53 AM 70.0 °F 46.0 °F 42% 30.18 in 10.0 mi NW 6.9 mph - N/A   Clear
12:53 PM 71.1 °F 48.9 °F 45% 30.18 in 10.0 mi NNW 8.1 mph - N/A   Clear
1:53 PM 72.0 °F 48.0 °F 43% 30.17 in 10.0 mi West 9.2 mph - N/A   Partly Cloudy
2:53 PM 71.1 °F 46.9 °F 42% 30.16 in 10.0 mi NNW 6.9 mph - N/A   Partly Cloudy
3:53 PM 70.0 °F 48.0 °F 46% 30.17 in 10.0 mi NW 8.1 mph - N/A   Partly Cloudy
4:53 PM 71.1 °F 46.9 °F 42% 30.17 in 10.0 mi NNW 9.2 mph - N/A   Mostly Cloudy
5:53 PM 71.1 °F 48.0 °F 44% 30.18 in 9.0 mi WNW 5.8 mph - N/A   Clear
6:53 PM 71.1 °F 48.0 °F 44% 30.18 in 10.0 mi North 3.5 mph - N/A   Partly Cloudy
7:53 PM 66.0 °F 48.9 °F 54% 30.18 in 8.0 mi North 3.5 mph - N/A   Clear
8:53 PM 63.0 °F 50.0 °F 63% 30.20 in 10.0 mi North 3.5 mph - N/A   Clear
9:53 PM 60.1 °F 51.1 °F 72% 30.21 in 10.0 mi NE 3.5 mph - N/A   Clear
10:53 PM 57.9 °F 52.0 °F 81% 30.23 in 10.0 mi Calm Calm - N/A   Clear
11:53 PM 57.9 °F 52.0 °F 81% 30.23 in 10.0 mi NE 4.6 mph - N/A   Clear